| time (UTC) | temp C | wind direction | speed KPH | gust KPH | rain 1hr cm | rain 24hr cm | rain mn cm | humidity % | barometer mb |
| 20260906193026 | 25 | 0.0 | 20.9 | 0.00 | 0.00 | 0.00 | 53 | 1016.8 | |
| 20260906191524 | 24 | 0.0 | 20.9 | 0.00 | 0.00 | 0.00 | 55 | 1016.8 | |
| 20260906190021 | 24 | 0.0 | 20.9 | 0.00 | 0.00 | 0.00 | 58 | 1016.9 | |
| 20260906184530 | 24 | 0.0 | 19.3 | 0.00 | 0.00 | 0.00 | 61 | 1016.8 | |
| 20260906183029 | 24 | 0.0 | 20.9 | 0.00 | 0.00 | 0.00 | 58 | 1016.9 | |
| 20260906181524 | 24 | 0.0 | 16.1 | 0.00 | 0.00 | 0.00 | 60 | 1017.0 | |
| 20260906180016 | 24 | 0.0 | 17.7 | 0.00 | 0.00 | 0.00 | 60 | 1016.9 | |
| 20260906174520 | 24 | 0.0 | 20.9 | 0.00 | 0.00 | 0.00 | 58 | 1017.1 | |
| 20260906173014 | 23 | 0.0 | 17.7 | 0.00 | 0.00 | 0.00 | 59 | 1017.1 | |
| 20260906171512 | 23 | 0.0 | 17.7 | 0.00 | 0.00 | 0.00 | 62 | 1017.4 | |
| 20260906170011 | 23 | 0.0 | 19.3 | 0.00 | 0.00 | 0.00 | 59 | 1017.6 | |
| 20260906164508 | 23 | 0.0 | 19.3 | 0.00 | 0.00 | 0.00 | 59 | 1017.6 | |
| 20260906163005 | 23 | 0.0 | 19.3 | 0.00 | 0.00 | 0.00 | 58 | 1017.6 | |
| 20260906161502 | 23 | 0.0 | 16.1 | 0.00 | 0.00 | 0.00 | 64 | 1017.5 | |
| 20260906160057 | 22 | 0.0 | 14.5 | 0.00 | 0.00 | 0.00 | 67 | 1017.7 | |
| 20260906154553 | 22 | 0.0 | 14.5 | 0.00 | 0.00 | 0.00 | 68 | 1017.7 | |
| 20260906153052 | 22 | 0.0 | 16.1 | 0.00 | 0.00 | 0.00 | 71 | 1017.5 | |
| 20260906151554 | 21 | 360 | 0.0 | 17.7 | 0.00 | 0.00 | 0.00 | 68 | 1017.4 |
| 20260906150048 | 21 | 0.0 | 12.9 | 0.00 | 0.00 | 0.00 | 72 | 1017.4 | |
| 20260906144546 | 21 | 0.0 | 16.1 | 0.00 | 0.00 | 0.00 | 73 | 1017.6 | |
| 20260906143039 | 21 | 0.0 | 14.5 | 0.00 | 0.00 | 0.00 | 74 | 1017.8 | |
| 20260906141536 | 20 | 0.0 | 12.9 | 0.00 | 0.00 | 0.00 | 76 | 1017.7 | |
| 20260906140030 | 20 | 0.0 | 12.9 | 0.00 | 0.00 | 0.00 | 77 | 1017.5 | |
| 20260906134528 | 20 | 0.0 | 14.5 | 0.00 | 0.00 | 0.00 | 78 | 1017.5 | |
| 20260906133027 | 19 | 0.0 | 16.1 | 0.00 | 0.00 | 0.00 | 80 | 1017.6 | |
| 20260906131523 | 19 | 0.0 | 17.7 | 0.00 | 0.00 | 0.00 | 81 | 1017.5 | |
| 20260906130018 | 18 | 0.0 | 14.5 | 0.00 | 0.00 | 0.00 | 82 | 1017.6 | |
| 20260906124514 | 18 | 0.0 | 14.5 | 0.00 | 0.00 | 0.00 | 84 | 1017.4 | |
| 20260906123010 | 18 | 360 | 0.0 | 12.9 | 0.00 | 0.00 | 0.00 | 86 | 1017.1 |
| 20260906121505 | 17 | 0.0 | 12.9 | 0.00 | 0.00 | 0.00 | 88 | 1017.1 | |
| 20260906120002 | 17 | 0.0 | 16.1 | 0.00 | 0.00 | 0.00 | 89 | 1016.9 | |
| 20260906114557 | 17 | 0.0 | 9.7 | 0.00 | 0.00 | 0.00 | 89 | 1016.5 | |
| 20260906113056 | 17 | 0.0 | 8.0 | 0.00 | 0.00 | 0.00 | 89 | 1016.2 | |
| 20260906111550 | 17 | 0.0 | 6.4 | 0.00 | 0.00 | 0.00 | 89 | 1016.0 | |
| 20260906110048 | 17 | 0.0 | 6.4 | 0.00 | 0.00 | 0.00 | 89 | 1015.7 | |
| 20260906104547 | 17 | 0.0 | 6.4 | 0.00 | 0.00 | 0.00 | 88 | 1015.7 | |
| 20260906103053 | 18 | 0.0 | 8.0 | 0.00 | 0.00 | 0.00 | 87 | 1015.6 | |
| 20260906101546 | 18 | 0.0 | 12.9 | 0.00 | 0.00 | 0.00 | 86 | 1015.3 | |
| 20260906100040 | 18 | 0.0 | 9.7 | 0.00 | 0.00 | 0.00 | 86 | 1015.1 | |
| 20260906094538 | 18 | 0.0 | 16.1 | 0.00 | 0.00 | 0.00 | 86 | 1015.1 | |
| 20260906093042 | 18 | 0.0 | 14.5 | 0.00 | 0.00 | 0.00 | 87 | 1015.1 | |
| 20260906091539 | 18 | 0.0 | 12.9 | 0.00 | 0.00 | 0.00 | 87 | 1014.8 | |
| 20260906090034 | 19 | 0.0 | 17.7 | 0.00 | 0.00 | 0.00 | 87 | 1014.8 | |
| 20260906084532 | 19 | 0.0 | 12.9 | 0.00 | 0.00 | 0.00 | 86 | 1015.0 | |
| 20260906083031 | 19 | 0.0 | 14.5 | 0.00 | 0.00 | 0.00 | 86 | 1015.0 | |
| 20260906081529 | 20 | 0.0 | 14.5 | 0.00 | 0.00 | 0.00 | 85 | 1014.8 | |
| 20260906080029 | 20 | 0.0 | 19.3 | 0.00 | 0.00 | 0.00 | 85 | 1014.7 | |
| 20260906074526 | 20 | 0.0 | 14.5 | 0.00 | 0.00 | 0.00 | 86 | 1014.7 | |
| 20260906073025 | 20 | 0.0 | 14.5 | 0.00 | 0.00 | 0.00 | 86 | 1014.6 | |
| 20260906071524 | 20 | 0.0 | 12.9 | 0.00 | 0.00 | 0.00 | 86 | 1014.6 | |
| 20260906070022 | 20 | 0.0 | 20.9 | 0.00 | 0.00 | 0.00 | 86 | 1014.5 | |
| 20260906064532 | 20 | 0.0 | 16.1 | 0.00 | 0.00 | 0.00 | 87 | 1014.6 | |
| 20260906063021 | 20 | 0.0 | 16.1 | 0.00 | 0.00 | 0.00 | 88 | 1014.6 | |
| 20260906061524 | 20 | 0.0 | 9.7 | 0.00 | 0.00 | 0.00 | 88 | 1014.7 | |
| 20260906060021 | 20 | 0.0 | 14.5 | 0.00 | 0.00 | 0.00 | 87 | 1014.5 | |
| 20260906054526 | 20 | 0.0 | 14.5 | 0.00 | 0.00 | 0.00 | 88 | 1014.4 | |
| 20260906053015 | 20 | 0.0 | 19.3 | 0.00 | 0.00 | 0.00 | 88 | 1014.2 | |
| 20260906051517 | 20 | 0.0 | 14.5 | 0.00 | 0.00 | 0.00 | 88 | 1014.2 | |
| 20260906050013 | 20 | 0.0 | 9.7 | 0.00 | 0.00 | 0.00 | 88 | 1014.2 | |
| 20260906044512 | 20 | 0.0 | 9.7 | 0.00 | 0.00 | 0.00 | 89 | 1014.0 | |
| 20260906043019 | 21 | 0.0 | 9.7 | 0.00 | 0.00 | 0.00 | 88 | 1013.9 | |
| 20260906041508 | 21 | 0.0 | 14.5 | 0.00 | 0.00 | 0.00 | 88 | 1013.9 | |
| 20260906040005 | 21 | 0.0 | 16.1 | 0.00 | 0.00 | 0.00 | 88 | 1013.9 | |
| 20260906034505 | 21 | 0.0 | 16.1 | 0.00 | 0.00 | 0.00 | 89 | 1014.0 | |
| 20260906033005 | 21 | 0.0 | 14.5 | 0.00 | 0.00 | 0.00 | 88 | 1014.1 | |
| 20260906031502 | 21 | 0.0 | 16.1 | 0.00 | 0.00 | 0.00 | 89 | 1014.0 | |
| 20260906030101 | 22 | 0.0 | 16.1 | 0.00 | 0.00 | 0.00 | 88 | 1013.7 | |
| 20260906024559 | 22 | 0.0 | 20.9 | 0.00 | 0.00 | 0.00 | 88 | 1013.4 | |
| 20260906023106 | 22 | 0.0 | 20.9 | 0.00 | 0.00 | 0.00 | 88 | 1013.3 | |
| 20260906021558 | 22 | 0.0 | 25.7 | 0.00 | 0.00 | 0.00 | 88 | 1013.2 | |
| 20260906020056 | 22 | 0.0 | 19.3 | 0.00 | 0.00 | 0.00 | 88 | 1013.0 | |
| 20260906014604 | 23 | 0.0 | 22.5 | 0.00 | 0.00 | 0.00 | 88 | 1012.7 | |
| 20260906013055 | 23 | 0.0 | 25.7 | 0.00 | 0.00 | 0.00 | 88 | 1012.3 | |
| 20260906011559 | 24 | 0.0 | 20.9 | 0.00 | 0.00 | 0.00 | 88 | 1012.2 | |
| 20260906010053 | 24 | 0.0 | 22.5 | 0.00 | 0.00 | 0.00 | 88 | 1011.9 | |
| 20260906004552 | 24 | 0.0 | 17.7 | 0.00 | 0.00 | 0.00 | 88 | 1011.9 | |
| 20260906003053 | 24 | 0.0 | 17.7 | 0.00 | 0.00 | 0.00 | 87 | 1011.7 | |
| 20260906001553 | 25 | 0.0 | 20.9 | 0.00 | 0.00 | 0.00 | 85 | 1011.4 | |
| 20260906000052 | 26 | 0.0 | 14.5 | 0.00 | 0.00 | 0.00 | 82 | 1011.2 | |
| 20260905234551 | 27 | 0.0 | 22.5 | 0.00 | 0.00 | 0.00 | 80 | 1011.3 | |
| 20260905233051 | 27 | 0.0 | 14.5 | 0.00 | 0.00 | 0.00 | 80 | 1011.2 | |
| 20260905231550 | 28 | 0.0 | 6.4 | 0.00 | 0.00 | 0.00 | 79 | 1010.8 | |
| 20260905230049 | 28 | 0.0 | 8.0 | 0.00 | 0.00 | 0.00 | 78 | 1010.7 | |
| 20260905224548 | 29 | 0.0 | 9.7 | 0.00 | 0.00 | 0.00 | 76 | 1010.8 | |
| 20260905223048 | 29 | 0.0 | 9.7 | 0.00 | 0.00 | 0.00 | 76 | 1010.8 | |
| 20260905221548 | 29 | 0.0 | 8.0 | 0.00 | 0.00 | 0.00 | 77 | 1010.9 | |
| 20260905220047 | 28 | 0.0 | 16.1 | 0.00 | 0.00 | 0.00 | 78 | 1010.7 | |
| 20260905214546 | 29 | 0.0 | 16.1 | 0.00 | 0.00 | 0.00 | 75 | 1010.4 | |
| 20260905213048 | 29 | 0.0 | 17.7 | 0.00 | 0.00 | 0.00 | 75 | 1010.4 | |
| 20260905211546 | 30 | 0.0 | 16.1 | 0.00 | 0.00 | 0.00 | 75 | 1010.5 | |
| 20260905210045 | 30 | 0.0 | 22.5 | 0.00 | 0.00 | 0.00 | 76 | 1010.3 | |
| 20260905204541 | 30 | 0.0 | 20.9 | 0.00 | 0.00 | 0.00 | 77 | 1010.3 | |
| 20260905203041 | 28 | 0.0 | 16.1 | 0.00 | 0.00 | 0.00 | 79 | 1010.6 | |
| 20260905201540 | 30 | 0.0 | 12.9 | 0.00 | 0.00 | 0.00 | 73 | 1010.5 | |
| 20260905200045 | 30 | 0.0 | 14.5 | 0.00 | 0.00 | 0.00 | 74 | 1010.6 | |
| 20260905194638 | 30 | 0.0 | 12.9 | 0.00 | 0.00 | 0.00 | 72 | 1010.9 |